sat.trackr.live / text

‹ back to catalog

GEESAT-4 05

NORAD 65123 · 2025-170E

PAYLOAD ACTIVE UNKNOWN

§ Identity

Operator
Country
PRC
Launch date
2025-08-08
Launch site
YSLA
Launch vehicle
Mass (kg)
RCS (m²)

External: N2YO · Heavens-Above · Gunter

§ Orbital elements

Epoch: 2026-05-25T04:21:11.537856Z

Period
97.16 min
Inclination
49.9948°
Eccentricity
0.0008236
Mean motion
14.82053615 rev/d
Perigee alt
617.1 km
Apogee alt
628.6 km
Semi-major
7,001.0 km
B*
1.8470e-4
RAAN
234.9359°
Arg perigee
233.0631°
Mean anomaly
126.9553°
Rev number
4,363

§ Raw data

GEESAT-4 051 65123U 25170E   26145.18138354  .00001259  00000+0  18470-3 0  99922 65123  49.9948 234.9359 0008236 233.0631 126.9553 14.82053615 43636

JSON: /api/v1/satellites/65123 · /tle

For live sub-satellite position, see the globe view (requires WebGL).

§ Visibility from observer

Set your observer location to see the next 7 days of passes ≥ 10°. The values pass through the URL so the page stays shareable.

No JS? Fill the form by hand. The geolocation button needs JavaScript.